Вернуться в каталог

FENGYUN 1C DEB

АктивенPO
NORAD 30639·DEBRIS·🇨🇳 China

Запущен May 10, 1999 с Taiyuan Satellite Launch Center

Loading…

Ближайшие Пролёты (ближайшие 24 часа)

TLE

СвежийSource: Space-Track

Эпоха: Sep 13, 2026, 20:51 UTC

1 30639U 99025ANW 26256.86897773  .00005036  00000-0  16991-2 0  9994
2 30639  99.0279  25.9458 0064859 197.3363 162.5606 14.36238957  6624

Отслеживайте FENGYUN 1C DEB в реальном времени с AllMySat

Download on the App Store